Regional Weather Roundup
Issued by NWS Newport/Morehead, NC

Current Version | Previous Version | Graphics & Text | Print | Product List | Glossary Off
Versions: 1 2 3 4 5 6 7 8 9 10 11 12 13 14 15 16 17 18 19 20 21 22 23 24 25 26 27 28 29 30 31 32 33 34 35 36 37 38 39 40 41 42 43 44 45 46 47 48 49 50

000
ASUS42 KMHX 190122
RWRMHX
WEATHER ROUNDUP FOR EASTERN NORTH CAROLINA
NATIONAL WEATHER SERVICE NEWPORT/MOREHEAD CITY NC
900 PM EDT THU SEP 18 2014

NOTE: "FAIR" INDICATES FEW OR NO CLOUDS BELOW 12,000 FEET
WITH NO SIGNIFICANT WEATHER AND/OR OBSTRUCTIONS TO VISIBILITY

NCZ015>017-031-032-045>047-102-103-190200-
NORTH COAST

CITY           SKY/WX    TMP DP  RH WIND       PRES   REMARKS
EDENTON        CLEAR     63  58  84 E3        30.06R
ELIZABETH CITY CLEAR     66  58  75 E5        30.06R
KITTY HAWK     CLEAR     70  55  59 E7        30.05R
MANTEO         CLEAR     69  56  64 NE5       30.06R

$$

NCZ045>047-081-094-103-104-190200-
CENTRAL COAST

CITY           SKY/WX    TMP DP  RH WIND       PRES   REMARKS
FRISCO         CLEAR     67  56  67 NE7       30.04R
SWANQUARTER      N/A     64 N/A N/A NE2       30.00S

$$

NCZ095-097-098-100-101-190200-
SOUTHERN COAST

CITY           SKY/WX    TMP DP  RH WIND       PRES   REMARKS
BEAUFORT       CLEAR     71  60  68 NE7       30.03R
CEDAR ISLAND     N/A     73 N/A N/A E7G15     30.06S
JACKSONVILLE   CLEAR     72  58  61 E10       30.02R
NEWPORT        NOT AVBL
PINEY ISLAND   CLEAR     74  59  59 E12       30.03R
WILMINGTON     CLEAR     74  62  66 E9        30.01R


$$

NCZ011>013-027>030-043-044-078>080-089-090>093-098-190200-
COASTAL PLAIN

CITY           SKY/WX    TMP DP  RH WIND       PRES   REMARKS
AHOSKIE        PTCLDY    65  57  77 CALM      30.06R
CLINTON        PTCLDY    71  65  83 CALM      30.02R
ELIZABETHTOWN  CLEAR     71  64  77 CALM      30.02R
GOLDSBORO      PTCLDY    69  67  91 SE5       30.01R
GREENVILLE     CLEAR     68  59  73 E5        30.05R
HAVELOCK       CLEAR     68  59  73 E5        30.04R
KENANSVILLE    CLEAR     69  61  75 E3        30.04R
KINSTON        CLEAR     72  61  68 SE7       30.04R
NEW BERN       CLEAR     71  59  65 E6        30.04R
RICHLANDS      CLEAR     68  57  68 E7        30.03R
ROANOKE RAPIDS NOT AVBL
ROCKY MOUNT    PTCLDY    68  61  78 CALM      30.04R
WASHINGTON     CLEAR     65  57  73 CALM      30.05R
WHITEVILLE     CLEAR     71  65  81 CALM      30.01R

$$

AMZ130-135-150-152-154-156-158-170-250-252-270-ANZ085-086-088-633-658-670-190200-
MARINE OBSERVATIONS

STATION/POSITION TIME  TEMP    WIND        PRES    WAVE   SWELL
                       AIR SEA DIR/SP/G            HT/PER HT/PER
                 (UTC) (F)     (DEG/KT/KT) (MB)    (FT/S) (FT/S)
CHESAPEAKE LIGHT 0100   70      80/  9/ 10 1018.6
BUOY 44014       0100   72 77   50/ 12/ 16 1017.1    4/11   3/11
DUCK             0100   71 75   70/ 10/ 12 1017.0
2E DUCK          0100                        N/A     3/11   2/11
OREGON INLET     0100   71 74   40/ 11/ 14 1017.3
BUOY 44095       0100      76                N/A     4/13   2/13
20E OREGON INLET NOT AVBL
HATTERAS CG      0100   72 77   60/  7/ 11 1017.4
DIAMOND BUOY     0100   72      40/ 14/ 19 1016.3    5/11   3/11
CAPE LOOKOUT     0100   74      50/ 17/ 19 1016.7
BEAUFORT LAB     0100   71 79   60/  5/  7 1016.5
30 SE NEW RIVER  0100   77 83   60/ 17/ 19 1016.4    4/ 6   2/11
5 SE WRIGHTSVILL 0100   74 81   80/ 16/ 17   N/A
BUOY 41002       0019   79 82   50/ 12/ 14 1015.4    3/ 9   3/ 9
BUOY 41004       0100   81 83   80/ 10/ 12 1014.2    3/10   3/10

$$



USA.gov is the U.S. government's official web portal to all federal, state and local government web resources and services.